Weather History for Oakland, CA

Change the Weather History Date:

Thursday, July 11, 2013

  Actual Average Record
Temperature  
Mean Temperature 62 °F 63 °F  
Max Temperature 68 °F 71 °F 88 °F (1961)
Min Temperature 56 °F 56 °F 51 °F (2004)
Degree Days  
Heating Degree Days 3 3  
Month to date heating degree days 7 33  
Since 1 June heating degree days 67 136  
Since 1 July heating degree days 7 33  
Cooling Degree Days 0 1  
Month to date cooling degree days 27 11  
Year to date cooling degree days 103 45  
Since 1 June cooling degree days 62 29  
Growing Degree Days 12 (Base 50)    
Moisture  
Dew Point 56 °F    
Average Humidity 84    
Maximum Humidity 100    
Minimum Humidity 68    
Precipitation  
Precipitation 0.00 in 0.00 in 0.00 in (2014)
Month to date precipitation 0.00 0.01  
Year to date precipitation 2.82 13.23  
Since 1 July precipitation 0.00 0.01  
Sea Level Pressure  
Sea Level Pressure 29.95 in    
Wind  
Wind Speed 9 mph (WNW)    
Max Wind Speed 21 mph    
Max Gust Speed 24 mph    
Visibility 10 miles    
Events Fog    
T = Trace of Precipitation, MM = Missing Value Source: NWS Daily Summary

Daily Weather History Graph

Daily Weather History Graph

Search for Another Location

Airport:

Trip Planner

Search our weather history database for the weather conditions in past years. The results will help you decide how hot, cold, wet, or windy it might be!

Date:

Astronomy

Jul. 11, 2013 Rise Set
Actual Time 5:56 AM PDT 8:31 PM PDT
Civil Twilight 5:26 AM PDT 9:02 PM PDT
Nautical Twilight 4:47 AM PDT 9:40 PM PDT
Astronomical Twilight 4:05 AM PDT 10:23 PM PDT
Moon 9:15 AM PDT (7/11) 10:20 PM PDT (7/11)
Length of Visible Light 15h 36m
Length of Day
14h 35m
Waxing Crescent, 11% of the Moon is Illuminated
Jul 11
Waxing Crescent
Jul 15
First Quarter
Jul 22
Full
Jul 29
Last Quarter
Aug 6
New

Hourly Weather History & Observations

Time (PDT) Temp. Dew Point Humidity Pressure Visibility Wind Dir Wind Speed Gust Speed Precip Events Conditions
12:53 AM 57.0 °F 57.0 °F 100% 29.96 in 10.0 mi WNW 6.9 mph - N/A   Overcast
1:53 AM 57.0 °F 57.0 °F 100% 29.95 in 10.0 mi WNW 8.1 mph - N/A   Overcast
2:53 AM 57.0 °F 57.0 °F 100% 29.95 in 10.0 mi Calm Calm - N/A   Overcast
3:53 AM 57.0 °F 55.9 °F 96% 29.94 in 10.0 mi West 3.5 mph - N/A   Overcast
4:53 AM 57.0 °F 57.0 °F 100% 29.94 in 10.0 mi Calm Calm - N/A   Overcast
5:53 AM 57.9 °F 57.0 °F 97% 29.95 in 10.0 mi West 5.8 mph - N/A   Overcast
6:53 AM 57.9 °F 57.0 °F 97% 29.96 in 10.0 mi Variable 6.9 mph - N/A   Overcast
7:53 AM 57.9 °F 57.0 °F 97% 29.97 in 10.0 mi West 10.4 mph - N/A   Overcast
8:14 AM 57.2 °F 55.4 °F 94% 29.97 in 10.0 mi West 9.2 mph - N/A   Overcast
8:53 AM 57.9 °F 55.9 °F 93% 29.97 in 10.0 mi West 10.4 mph - N/A   Overcast
9:53 AM 59.0 °F 55.9 °F 90% 29.97 in 10.0 mi WSW 9.2 mph - N/A   Overcast
10:53 AM 62.1 °F 57.0 °F 84% 29.96 in 10.0 mi NW 9.2 mph - N/A   Overcast
11:53 AM 64.0 °F 57.0 °F 78% 29.96 in 10.0 mi NW 10.4 mph - N/A   Scattered Clouds
12:53 PM 66.0 °F 57.0 °F 73% 29.96 in 10.0 mi WNW 8.1 mph - N/A   Partly Cloudy
1:53 PM 66.9 °F 55.9 °F 68% 29.95 in 10.0 mi West 16.1 mph - N/A   Partly Cloudy
2:53 PM 66.0 °F 55.9 °F 70% 29.94 in 10.0 mi West 18.4 mph - N/A   Partly Cloudy
3:53 PM 66.0 °F 55.9 °F 70% 29.93 in 10.0 mi WNW 16.1 mph - N/A   Partly Cloudy
4:53 PM 64.9 °F 55.9 °F 73% 29.93 in 10.0 mi WNW 17.3 mph - N/A   Partly Cloudy
5:53 PM 64.9 °F 55.9 °F 73% 29.91 in 7.0 mi West 13.8 mph - N/A Fog Partly Cloudy
6:53 PM 63.0 °F 57.0 °F 81% 29.91 in 7.0 mi WNW 16.1 mph - N/A Fog Scattered Clouds
7:53 PM 60.1 °F 57.0 °F 90% 29.92 in 7.0 mi WNW 8.1 mph - N/A Fog Scattered Clouds
8:24 PM 60.8 °F 57.2 °F 88% 29.92 in 7.0 mi WNW 8.1 mph - N/A Fog Mostly Cloudy
8:53 PM 59.0 °F 57.0 °F 93% 29.93 in 8.0 mi NW 8.1 mph - N/A Fog Mostly Cloudy
9:53 PM 60.1 °F 57.0 °F 90% 29.94 in 10.0 mi West 4.6 mph - N/A   Overcast
10:53 PM 57.9 °F 55.9 °F 93% 29.95 in 10.0 mi Calm Calm - N/A   Overcast
11:30 PM 57.2 °F 55.4 °F 94% 29.94 in 10.0 mi Calm Calm - N/A   Scattered Clouds
11:46 PM 57.2 °F 55.4 °F 94% 29.95 in 10.0 mi Calm Calm - N/A   Mostly Cloudy
11:53 PM 59.0 °F 55.9 °F 90% 29.94 in 10.0 mi WSW 6.9 mph - N/A   Overcast